Flag for Brazil Weather past 2 weeks in Santos, São Paulo, Brazil

Now
61 °F

Clear.


Feels Like: 61 °F
Forecast: 64 / 88 °F
Wind: 1 mph from North

Location: Sao Paulo Airport

Current Time: Aug 3, 2015 at 4:38:04 AM

Latest Report: Aug 3, 2015 at 4:00 AM


Visibility: 10 mi

Pressure: 30.12 "Hg

Humidity: 77%

Dew point: 54 °F

Location of SantosLocation

Historic Weather in Santos — Graph

°F

Santos temperature yesterday

Maximum temperature yesterday: 79 °F (at 3:00 PM)
Minimum temperature yesterday: 59 °F (at 5:00 AM)
Average temperature yesterday: 69 °F

Past Weeks' High & Low Weather Summary

 TemperatureHumidityPressure
High81 °F (Aug 1, 3:00 PM)100% (Jul 28, 8:00 AM)30.33 "Hg (Jul 28, 8:00 AM)
Low36 °F (Jul 28, 8:00 AM)27% (Jul 28, 3:00 PM)30.04 "Hg (Jul 21, 1:00 AM)
Average64 °F68%30.19 "Hg
* Reported Jul 19 3:00 AM — Aug 3 3:00 AM, Santos, Weather by CustomWeather, © 2015

Note: Actual official high and low records may vary slightly from our data, if they occured in-between our weather recording intervals... More about our weather records

Advertising

Santos weather history for previous 24 hours

 ConditionsComfort  
Time TempWeatherWind HumidityBarometerVisibility
3:00 AM
Mon, Aug 3
61 °FClear.2 mph77%30.12 "Hg10 mi
2:00 AM63 °FClear.1 mph73%30.12 "Hg10 mi
1:00 AM63 °FClear.No wind73%30.12 "Hg10 mi
12:00 AM64 °FClear.No wind64%30.12 "Hg10 mi
11:00 PM
Sun, Aug 2
64 °FClear.2 mph64%30.15 "Hg10 mi
10:00 PM68 °FClear.1 mph56%30.15 "Hg10 mi
9:00 PM70 °FClear.No wind46%30.15 "Hg10 mi
8:00 PM73 °FClear.2 mph41%30.15 "Hg10 mi
7:00 PM73 °FClear.5 mph41%30.12 "Hg10 mi
6:00 PM75 °FClear.7 mph36%30.12 "Hg10 mi
5:00 PM77 °FClear.5 mph36%30.09 "Hg10 mi
4:00 PM79 °FSunny.8 mph34%30.09 "Hg10 mi
3:00 PM79 °FSunny.9 mph34%30.09 "Hg10 mi
2:00 PM77 °FSunny.8 mph39%30.12 "Hg10 mi
1:00 PM77 °FPassing clouds.12 mph39%30.15 "HgN/A
12:00 PM75 °FPassing clouds.12 mph36%30.18 "HgN/A
11:00 AM73 °FPassing clouds.7 mph47%30.21 "HgN/A
10:00 AM70 °FPassing clouds.7 mph53%30.21 "HgN/A
9:00 AM66 °FSunny.5 mph60%30.21 "Hg10 mi
8:00 AM63 °FSunny.5 mph64%30.18 "Hg10 mi
7:00 AM61 °FSunny.2 mph68%30.15 "Hg10 mi
6:00 AM61 °FSunny.5 mph63%30.15 "Hg10 mi
5:00 AM59 °FClear.2 mph68%30.12 "Hg10 mi
4:00 AM61 °FClear.2 mph63%30.12 "Hg10 mi
Weather by CustomWeather, © 2015

See weather overviewHow to use our weather pages